Tracking 19176 objects as of 27-May-2018
HD Live streaming from Space Station
objects crossing your sky now

COSMOS 1328

Track COSMOS 1328 now!
10-day predictions
COSMOS 1328 is classified as:


NORAD ID: 12987
Int'l Code: 1981-117A
Perigee: 542.5 km
Apogee: 558.6 km
Inclination: 82.5 °
Period: 95.5 minutes
Semi major axis: 6921 km
RCS: 9.2433 m2 (large)
Launch date: December 3, 1981
Source: Commonwealth of Independent States (former USSR) (CIS)
Launch site: PLESETSK MISSILE AND SPACE COMPLEX (PKMTR)
aabbcc
Your satellite tracking list
Your tracking list is empty




NASA's NSSDC Master Catalog

Two Line Element Set (TLE):
1 12987U 81117A   18146.52752431 +.00000268 +00000-0 +15632-4 0  9991
2 12987 082.5140 266.4794 0011668 146.8126 213.3837 15.07647144983946
Source of the keplerian elements: AFSPC